Weather History for New Haven, CT

Change the Weather History Date:

Saturday, February 9, 2013

  Actual Average Record
Temperature  
Mean Temperature 26 °F -  
Max Temperature 30 °F 37 °F 28 °F (2014)
Min Temperature 21 °F 24 °F 17 °F (2014)
Degree Days  
Heating Degree Days 40    
Moisture  
Dew Point 14 °F    
Average Humidity 63    
Maximum Humidity 88    
Minimum Humidity 30    
Precipitation  
Precipitation 0.22 in - - ()
Sea Level Pressure  
Sea Level Pressure 29.88 in    
Wind  
Wind Speed 16 mph (NNW)    
Max Wind Speed 25 mph    
Max Gust Speed 41 mph    
Visibility 5 miles    
Events Fog , Snow    
Averages and records for this station are not official NWS values.
T = Trace of Precipitation, MM = Missing Value Source: NWS Daily Summary

Daily Weather History Graph

Daily Weather History Graph

Search for Another Location

Airport:

Trip Planner

Search our weather history database for the weather conditions in past years. The results will help you decide how hot, cold, wet, or windy it might be!

Date:

Astronomy

Feb. 09, 2013 Rise Set
Actual Time 6:53 AM EST 5:18 PM EST
Civil Twilight 6:25 AM EST 5:47 PM EST
Nautical Twilight 5:52 AM EST 6:19 PM EST
Astronomical Twilight 5:20 AM EST 6:51 PM EST
Moon 6:03 AM EST (2/9) 4:58 PM EST (2/9)
Length of Visible Light 11h 22m
Length of Day
10h 24m
Waning Crescent, 0% of the Moon is Illuminated
Feb 9
Waning Crescent
Feb 10
New
Feb 17
First Quarter
Feb 25
Full
Mar 4
Last Quarter

Hourly Weather History & Observations

Time (EST) Temp. Windchill Dew Point Humidity Pressure Visibility Wind Dir Wind Speed Gust Speed Precip Events Conditions
12:35 AM 23.0 °F 9.2 °F 19.4 °F 86% 29.66 in 0.5 mi North 17.3 mph 38.0 mph 0.03 in Fog Light Freezing Fog
12:53 AM 23.0 °F 8.7 °F 19.9 °F 88% 29.66 in 0.5 mi North 18.4 mph 33.4 mph 0.04 in Fog Light Freezing Fog
1:53 AM 24.1 °F 12.0 °F 21.0 °F 88% 29.69 in 0.5 mi NNW 13.8 mph 24.2 mph 0.07 in Fog Light Freezing Fog
2:53 AM 25.0 °F 13.1 °F 21.9 °F 88% 29.70 in 0.5 mi NNW 13.8 mph 27.6 mph 0.08 in Fog Light Freezing Fog
3:18 AM 24.8 °F 13.4 °F 21.2 °F 86% 29.70 in 0.8 mi NW 12.7 mph 24.2 mph 0.02 in   Mist
3:28 AM 26.6 °F 14.3 °F 21.2 °F 80% 29.70 in 1.0 mi NNW 16.1 mph 24.2 mph 0.02 in   Mist
3:43 AM 26.6 °F 14.7 °F 21.2 °F 80% 29.71 in 1.2 mi NW 15.0 mph 23.0 mph 0.03 in Snow Light Snow
3:53 AM 26.1 °F 15.6 °F 21.9 °F 84% 29.71 in 1.2 mi NNW 11.5 mph 24.2 mph 0.03 in Snow Light Snow
4:29 AM 26.6 °F 14.3 °F 21.2 °F 80% 29.72 in 2.0 mi NNW 16.1 mph 25.3 mph 0.00 in Snow Light Snow
4:53 AM 27.0 °F 15.6 °F 21.9 °F 81% 29.72 in 1.8 mi NNW 13.8 mph 23.0 mph 0.00 in Snow Light Snow
5:25 AM 26.6 °F 14.7 °F 21.2 °F 80% 29.73 in 1.0 mi NNW 15.0 mph 26.5 mph 0.00 in Snow Light Snow
5:53 AM 27.0 °F 13.5 °F 21.9 °F 81% 29.74 in 1.5 mi NNW 19.6 mph 29.9 mph 0.00 in Snow Light Snow
6:33 AM 26.6 °F 15.2 °F 21.2 °F 80% 29.75 in 2.0 mi NW 13.8 mph 25.3 mph 0.00 in Snow Light Snow
6:44 AM 26.6 °F 14.3 °F 19.4 °F 74% 29.76 in 1.8 mi NNW 16.1 mph 33.4 mph 0.00 in Snow Light Snow
6:53 AM 26.1 °F 12.7 °F 19.9 °F 78% 29.76 in 2.0 mi NNW 18.4 mph 26.5 mph 0.00 in Snow Light Snow
7:08 AM 26.6 °F 16.8 °F 19.4 °F 74% 29.77 in 1.8 mi NNW 10.4 mph 25.3 mph 0.00 in Snow Light Snow
7:40 AM 26.6 °F 15.2 °F 19.4 °F 74% 29.80 in 3.0 mi NNW 13.8 mph 28.8 mph 0.00 in Snow Light Snow
7:53 AM 26.1 °F 14.0 °F 17.1 °F 69% 29.81 in 6.0 mi NNW 15.0 mph 31.1 mph 0.00 in   Haze
8:21 AM 24.8 °F 10.3 °F 15.8 °F 69% 29.82 in 2.0 mi NNW 20.7 mph 35.7 mph 0.00 in Snow Light Snow
8:32 AM 26.6 °F 13.4 °F 15.8 °F 64% 29.82 in 3.0 mi NNW 18.4 mph 28.8 mph 0.00 in Snow Light Snow
8:53 AM 26.1 °F 10.7 °F 15.1 °F 63% 29.83 in 3.0 mi NNW 25.3 mph 36.8 mph 0.00 in   Overcast
9:53 AM 27.0 °F 14.3 °F 14.0 °F 58% 29.86 in 7.0 mi NNW 17.3 mph 32.2 mph 0.00 in   Overcast
10:42 AM 28.4 °F 14.7 °F 14.0 °F 55% 29.87 in 8.0 mi NNW 21.9 mph 35.7 mph 0.00 in   Scattered Clouds
10:53 AM 28.0 °F 13.6 °F 14.0 °F 56% 29.87 in 3.0 mi NNW 24.2 mph 40.3 mph 0.00 in   Partly Cloudy
11:03 AM 28.4 °F 15.4 °F 14.0 °F 55% 29.88 in 2.5 mi NNW 19.6 mph 41.4 mph 0.00 in   Partly Cloudy
11:10 AM 28.4 °F 16.2 °F 14.0 °F 55% 29.88 in 6.0 mi NW 17.3 mph 34.5 mph 0.00 in   Haze
11:53 AM 28.0 °F 15.3 °F 12.9 °F 53% 29.89 in 6.0 mi NNW 18.4 mph 36.8 mph 0.00 in   Haze
12:53 PM 28.9 °F 15.4 °F 10.9 °F 47% 29.92 in 8.0 mi NNW 21.9 mph 35.7 mph 0.00 in   Clear
1:53 PM 30.0 °F 18.7 °F 6.1 °F 36% 29.94 in 10.0 mi NNW 16.1 mph 28.8 mph 0.00 in   Clear
2:53 PM 30.9 °F 19.1 °F 5.0 °F 33% 29.98 in 10.0 mi NNW 18.4 mph 24.2 mph 0.00 in   Clear
3:53 PM 30.0 °F 17.5 °F 1.9 °F 30% 30.01 in 9.0 mi NNW 19.6 mph 32.2 mph 0.00 in   Clear
4:53 PM 28.9 °F 18.2 °F 1.9 °F 32% 30.05 in 10.0 mi NW 13.8 mph 36.8 mph N/A   Clear
5:53 PM 27.0 °F 15.2 °F 3.0 °F 36% 30.10 in 10.0 mi NW 15.0 mph 27.6 mph N/A   Clear
6:53 PM 26.1 °F 15.6 °F 3.9 °F 39% 30.16 in 10.0 mi NW 11.5 mph 23.0 mph N/A   Clear
7:53 PM 25.0 °F 14.2 °F 3.9 °F 41% 30.18 in 10.0 mi NNW 11.5 mph 24.2 mph N/A   Clear
8:53 PM 24.1 °F 14.4 °F 3.0 °F 40% 30.20 in 10.0 mi NNW 9.2 mph 23.0 mph N/A   Clear
9:53 PM 23.0 °F 11.7 °F 3.0 °F 42% 30.24 in 10.0 mi NW 11.5 mph 19.6 mph N/A   Clear
10:53 PM 21.9 °F 12.5 °F 1.9 °F 42% 30.27 in 10.0 mi NNW 8.1 mph 19.6 mph N/A   Clear
11:53 PM 21.0 °F 12.4 °F 1.0 °F 42% 30.29 in 10.0 mi NNW 6.9 mph - N/A   Clear